Branson, MO

4:21 AM CST on January 22, 2018 (GMT -0600)
Branson

Weather History for KBBG - October, 2012

Change the Weather History Date:

Tuesday, October 2, 2012

  Actual Average (KHRO) Record (KHRO)
Temperature  
Mean Temperature 62 °F -  
Max Temperature 73 °F 76 °F 92 °F (1953)
Min Temperature 50 °F 52 °F 32 °F (1958)
Degree Days  
Heating Degree Days 4    
Growing Degree Days 12 (Base 50)    
Moisture  
Dew Point 47 °F    
Average Humidity 74    
Maximum Humidity 94    
Minimum Humidity 38    
Precipitation  
Precipitation 0.00 in - - ()
Sea Level Pressure  
Sea Level Pressure 29.90 in    
Wind  
Wind Speed 2 mph (West)    
Max Wind Speed 12 mph    
Max Gust Speed -    
Visibility 10 miles    
Events      
Averages and records for this station are not official NWS values.
T = Trace of Precipitation, MM = Missing Value Source: NWS Daily Summary

Daily Weather History Graph

Daily Weather History Graph

Search for Another Location

Airport or City:

Trip Planner

Search our weather history database for the weather conditions in past years. The results will help you decide how hot, cold, wet, or windy it might be!

Date:

Astronomy

Oct. 02, 2012 Rise Set
Actual Time 7:09 AM CDT 6:54 PM CDT
Civil Twilight 6:43 AM CDT 7:19 PM CDT
Nautical Twilight 6:13 AM CDT 7:49 PM CDT
Astronomical Twilight 5:43 AM CDT 8:19 PM CDT
Moon 8:13 PM CDT (10/2) 9:31 AM CDT (10/2)
Length of Visible Light 12h 36m
Length of Day
11h 44m
Waning Gibbous, 94% of the Moon is Illuminated
Oct 2
Waning Gibbous
Oct 8
Last Quarter
Oct 15
New
Oct 21
First Quarter
Oct 29
Full

Hourly Weather History & Observations

Time (CDT) Temp. Dew Point Humidity Pressure Visibility Wind Dir Wind Speed Gust Speed Precip Events Conditions
12:15 AM 53.6 °F 48.2 °F 82% 29.86 in 10.0 mi Calm Calm - N/A   Overcast
12:35 AM 53.6 °F 46.4 °F 77% 29.86 in 10.0 mi Calm Calm - N/A   Mostly Cloudy
12:55 AM 51.8 °F 46.4 °F 82% 29.85 in 10.0 mi Calm Calm - N/A   Partly Cloudy
1:55 AM 50.0 °F 46.4 °F 87% 29.86 in 10.0 mi Calm Calm - N/A   Mostly Cloudy
2:15 AM 50.0 °F 46.4 °F 87% 29.86 in 10.0 mi Calm Calm - N/A   Mostly Cloudy
2:35 AM 50.0 °F 44.6 °F 82% 29.86 in 10.0 mi Calm Calm - N/A   Overcast
2:55 AM 51.8 °F 44.6 °F 76% 29.86 in 10.0 mi Calm Calm - N/A   Overcast
3:15 AM 51.8 °F 44.6 °F 76% 29.86 in 10.0 mi WNW 3.5 mph - N/A   Overcast
3:35 AM 51.8 °F 44.6 °F 76% 29.85 in 10.0 mi Calm Calm - N/A   Overcast
3:55 AM 50.0 °F 44.6 °F 82% 29.86 in 10.0 mi Calm Calm - N/A   Overcast
4:15 AM 50.0 °F 44.6 °F 82% 29.86 in 10.0 mi Calm Calm - N/A   Overcast
4:35 AM 50.0 °F 46.4 °F 87% 29.86 in 10.0 mi West 3.5 mph - N/A   Overcast
4:55 AM 50.0 °F 46.4 °F 87% 29.87 in 10.0 mi Calm Calm - N/A   Overcast
5:15 AM 50.0 °F 46.4 °F 87% 29.88 in 10.0 mi SW 3.5 mph - N/A   Overcast
5:35 AM 50.0 °F 48.2 °F 94% 29.88 in 10.0 mi SW 3.5 mph - N/A   Overcast
5:55 AM 50.0 °F 46.4 °F 87% 29.89 in 10.0 mi SW 3.5 mph - N/A   Overcast
6:15 AM 50.0 °F 46.4 °F 87% 29.89 in 10.0 mi WSW 3.5 mph - N/A   Mostly Cloudy
6:35 AM 50.0 °F 46.4 °F 87% 29.90 in 10.0 mi SW 4.6 mph - N/A   Mostly Cloudy
6:52 AM 50.0 °F 46.4 °F 87% 29.90 in 10.0 mi SW 4.6 mph - N/A   Scattered Clouds
7:45 AM 50.0 °F 48.2 °F 94% 29.91 in 10.0 mi SW 4.6 mph - N/A   Scattered Clouds
8:45 AM 55.4 °F 50.0 °F 82% 29.91 in 10.0 mi WSW 3.5 mph - N/A   Scattered Clouds
9:45 AM 57.2 °F 50.0 °F 77% 29.93 in 10.0 mi SW 3.5 mph - N/A   Partly Cloudy
10:46 AM 62.6 °F 48.2 °F 59% 29.94 in 10.0 mi NW 6.9 mph - N/A   Clear
11:50 AM 64.4 °F 48.2 °F 56% 29.93 in 10.0 mi West 5.8 mph - N/A   Clear
1:45 PM 69.8 °F 48.2 °F 46% 29.90 in 10.0 mi West 8.1 mph - N/A   Partly Cloudy
2:48 PM 71.6 °F 46.4 °F 41% 29.88 in 10.0 mi NW 11.5 mph - N/A   Partly Cloudy
3:49 PM 73.4 °F 46.4 °F 38% 29.88 in 10.0 mi NW 9.2 mph - N/A   Partly Cloudy
4:47 PM 73.4 °F 46.4 °F 38% 29.88 in 10.0 mi NW 9.2 mph - N/A   Partly Cloudy
5:52 PM 71.6 °F 48.2 °F 43% 29.89 in 10.0 mi North 8.1 mph - N/A   Mostly Cloudy
6:52 PM 66.2 °F 48.2 °F 52% 29.90 in 10.0 mi NW 5.8 mph - N/A   Clear
7:55 PM 62.6 °F 50.0 °F 63% 29.91 in 10.0 mi Calm Calm - N/A   Clear
8:45 PM 60.8 °F 48.2 °F 63% 29.93 in 10.0 mi Calm Calm - N/A   Clear
9:15 PM 59.0 °F 48.2 °F 67% 29.93 in 10.0 mi Calm Calm - N/A   Clear
9:55 PM 57.2 °F 48.2 °F 72% 29.95 in 10.0 mi Calm Calm - N/A   Clear
10:15 PM 55.4 °F 50.0 °F 82% 29.95 in 10.0 mi Calm Calm - N/A   Clear
10:35 PM 57.2 °F 50.0 °F 77% 29.95 in 10.0 mi Calm Calm - N/A   Clear
10:55 PM 55.4 °F 50.0 °F 82% 29.95 in 10.0 mi Calm Calm - N/A   Clear
11:15 PM 55.4 °F 48.2 °F 77% 29.95 in 10.0 mi Calm Calm - N/A   Clear
11:35 PM 55.4 °F 50.0 °F 82% 29.96 in 10.0 mi SW 3.5 mph - N/A   Clear
11:55 PM 57.2 °F 50.0 °F 77% 29.96 in 10.0 mi SW 3.5 mph - N/A   Clear